Location: ????????
(55.0097°N, 38.5678°E)
Time: 00:35:56
(UTC+00:00)

NOSS 3-1 (C) - Pass Details

Date: 20 December 2025
Orbit: 618 x 1583 km, 63.4° (Epoch: 10 January)

Event Time Altitude Azimuth Distance (km) Brightness Sun altitude
Rises 17:26:03 0° 244° (WSW) 3,049 6.8 -36.4°
Reaches altitude 10° 17:28:12 10° 248° (WSW) 2,214 5.9 -36.7°
Enters shadow 17:30:00 23° 254° (WSW) 1,567 5.0 -37.0°
